Galliano, LA

11:18 AM CST on February 19, 2017 (GMT -0600)
Galliano

Weather History for KGAO - March, 2013

Change the Weather History Date:

Sunday, March 24, 2013

  Actual Average (KHUM) Record (KHUM)
Temperature  
Mean Temperature 64 °F -  
Max Temperature 77 °F 72 °F 86 °F (1938)
Min Temperature 50 °F 52 °F 32 °F (1968)
Degree Days  
Heating Degree Days 2    
Growing Degree Days 14 (Base 50)    
Moisture  
Dew Point 54 °F    
Average Humidity 67    
Maximum Humidity 100    
Minimum Humidity 27    
Precipitation  
Precipitation 0.00 in - - ()
Sea Level Pressure  
Sea Level Pressure 29.77 in    
Wind  
Wind Speed 11 mph (West)    
Max Wind Speed 22 mph    
Max Gust Speed 29 mph    
Visibility 8 miles    
Events Fog    
Averages and records for this station are not official NWS values.
T = Trace of Precipitation, MM = Missing Value Source: NWS Daily Summary

Daily Weather History Graph

Daily Weather History Graph

Search for Another Location

Airport or City:

Trip Planner

Search our weather history database for the weather conditions in past years. The results will help you decide how hot, cold, wet, or windy it might be!

Date:

Astronomy

Mar. 24, 2013 Rise Set
Actual Time 6:59 AM CDT 7:14 PM CDT
Civil Twilight 6:36 AM CDT 7:38 PM CDT
Nautical Twilight 6:08 AM CDT 8:06 PM CDT
Astronomical Twilight 5:40 AM CDT 8:34 PM CDT
Moon 4:52 PM CDT (3/24) 4:59 AM CDT (3/24)
Length of Visible Light 13h 02m
Length of Day
12h 15m
Waxing Gibbous, 92% of the Moon is Illuminated
Mar 24
Waxing Gibbous
Mar 27
Full
Apr 2
Last Quarter
Apr 10
New
Apr 18
First Quarter

Hourly Weather History & Observations

Time (CDT) Temp. Dew Point Humidity Pressure Visibility Wind Dir Wind Speed Gust Speed Precip Events Conditions
12:15 AM 67.6 °F 66.4 °F 96% 29.62 in 5.0 mi SW 8.1 mph 17.3 mph N/A   Mist
12:35 AM 68.0 °F 66.6 °F 95% 29.62 in 5.0 mi SW 8.1 mph - N/A   Mist
12:55 AM 68.4 °F 66.7 °F 95% 29.63 in 5.0 mi WSW 10.4 mph 19.6 mph N/A   Mist
1:15 AM 68.7 °F 66.9 °F 94% 29.63 in 5.0 mi WSW 12.7 mph 19.6 mph N/A   Mist
1:35 AM 69.4 °F 67.1 °F 92% 29.63 in 7.0 mi WSW 13.8 mph 20.7 mph N/A   Unknown
1:55 AM 69.3 °F 67.1 °F 93% 29.63 in 7.0 mi WSW 13.8 mph 19.6 mph N/A   Unknown
2:35 AM 68.7 °F 66.6 °F 93% 29.64 in 7.0 mi West 8.1 mph 18.4 mph N/A   Unknown
2:55 AM 68.0 °F 66.2 °F 94% 29.63 in 7.0 mi WSW 8.1 mph - N/A   Unknown
3:15 AM 67.3 °F 65.5 °F 94% 29.63 in 7.0 mi WSW 6.9 mph - N/A   Unknown
3:35 AM 66.4 °F 64.9 °F 95% 29.63 in 7.0 mi WSW 5.8 mph - N/A   Unknown
3:55 AM 65.5 °F 64.4 °F 96% 29.63 in 5.0 mi West 6.9 mph - N/A   Mist
4:15 AM 65.5 °F 64.4 °F 96% 29.63 in 7.0 mi West 5.8 mph - N/A   Unknown
4:35 AM 65.3 °F 64.0 °F 96% 29.62 in 7.0 mi WSW 3.5 mph - N/A   Unknown
4:55 AM 63.7 °F 62.6 °F 96% 29.62 in 4.0 mi WSW 3.5 mph - N/A   Mist
5:15 AM 61.7 °F 60.8 °F 97% 29.63 in 0.5 mi West 3.5 mph - N/A Fog Fog
5:35 AM 62.1 °F 61.7 °F 99% 29.63 in 0.5 mi WNW 5.8 mph - N/A Fog Fog
5:55 AM 62.4 °F 61.9 °F 98% 29.63 in 3.0 mi WNW 3.5 mph - N/A   Mist
6:15 AM 61.2 °F 60.8 °F 99% 29.63 in 0.8 mi Calm Calm - N/A   Mist
6:35 AM 59.9 °F 59.7 °F 99% 29.64 in 0.2 mi Calm Calm - N/A Fog Fog
6:55 AM 61.5 °F 61.5 °F 100% 29.65 in 4.0 mi Calm Calm - N/A   Mist
7:15 AM 61.2 °F 61.2 °F 100% 29.66 in 5.0 mi WNW 3.5 mph - N/A   Mist
7:35 AM 61.2 °F 61.2 °F 100% 29.71 in 5.0 mi WNW 16.1 mph - N/A   Mist
7:55 AM 60.4 °F 60.3 °F 99% 29.71 in 7.0 mi WNW 8.1 mph 18.4 mph N/A   Unknown
8:15 AM 61.7 °F 61.0 °F 97% 29.73 in 5.0 mi West 9.2 mph - N/A   Mist
8:35 AM 64.6 °F 62.6 °F 93% 29.76 in 5.0 mi West 11.5 mph 16.1 mph N/A   Mist
8:55 AM 68.7 °F 65.3 °F 89% 29.77 in 7.0 mi West 10.4 mph - N/A   Unknown
9:15 AM 71.1 °F 65.3 °F 82% 29.77 in 10.0 mi West 9.2 mph - N/A   Unknown
9:35 AM 72.7 °F 64.2 °F 75% 29.77 in 7.0 mi West 12.7 mph 18.4 mph N/A   Unknown
9:55 AM 73.0 °F 64.0 °F 73% 29.78 in 10.0 mi West 12.7 mph 18.4 mph N/A   Unknown
10:15 AM 73.9 °F 64.4 °F 72% 29.79 in 10.0 mi West 13.8 mph 20.7 mph N/A   Unknown
10:35 AM 72.9 °F 63.7 °F 73% 29.79 in 10.0 mi West 15.0 mph 20.7 mph N/A   Unknown
10:55 AM 74.5 °F 63.1 °F 68% 29.79 in 10.0 mi WNW 16.1 mph 24.2 mph N/A   Unknown
11:15 AM 75.4 °F 63.1 °F 66% 29.79 in 10.0 mi West 11.5 mph 20.7 mph N/A   Unknown
11:35 AM 76.8 °F 61.9 °F 60% 29.79 in 10.0 mi West 19.6 mph 25.3 mph N/A   Unknown
11:55 AM 76.8 °F 61.7 °F 59% 29.78 in 10.0 mi West 17.3 mph 20.7 mph N/A   Unknown
12:15 PM 77.2 °F 62.1 °F 59% 29.78 in 10.0 mi WNW 15.0 mph 20.7 mph N/A   Unknown
12:35 PM 76.3 °F 60.4 °F 58% 29.78 in 10.0 mi West 15.0 mph 21.9 mph N/A   Unknown
12:55 PM 75.9 °F 60.1 °F 58% 29.78 in 10.0 mi WNW 16.1 mph 24.2 mph N/A   Unknown
1:15 PM 76.3 °F 59.7 °F 56% 29.77 in 10.0 mi WNW 16.1 mph 20.7 mph N/A   Unknown
1:35 PM 76.1 °F 59.7 °F 57% 29.77 in 10.0 mi West 13.8 mph 25.3 mph N/A   Unknown
1:55 PM 75.7 °F 59.4 °F 57% 29.77 in 10.0 mi West 19.6 mph 26.5 mph N/A   Unknown
2:15 PM 75.0 °F 59.4 °F 58% 29.77 in 10.0 mi West 18.4 mph 25.3 mph N/A   Unknown
2:35 PM 75.0 °F 56.8 °F 53% 29.77 in 10.0 mi West 20.7 mph 26.5 mph N/A   Unknown
2:55 PM 75.4 °F 56.5 °F 52% 29.76 in 10.0 mi West 21.9 mph 27.6 mph N/A   Unknown
3:15 PM 75.7 °F 55.2 °F 49% 29.76 in 10.0 mi West 15.0 mph 26.5 mph N/A   Unknown
3:35 PM 76.1 °F 55.2 °F 48% 29.76 in 10.0 mi West 16.1 mph - N/A   Unknown
3:55 PM 75.4 °F 51.8 °F 44% 29.76 in 10.0 mi West 12.7 mph 26.5 mph N/A   Unknown
4:15 PM 74.7 °F 49.3 °F 41% 29.76 in 10.0 mi WNW 21.9 mph 25.3 mph N/A   Unknown
4:35 PM 73.6 °F 46.2 °F 38% 29.77 in 10.0 mi West 20.7 mph 26.5 mph N/A   Unknown
4:55 PM 72.7 °F 41.7 °F 33% 29.77 in 10.0 mi West 17.3 mph 28.8 mph N/A   Unknown
5:15 PM 72.0 °F 41.0 °F 33% 29.78 in 10.0 mi West 19.6 mph 26.5 mph N/A   Unknown
5:35 PM 71.6 °F 42.6 °F 35% 29.78 in 10.0 mi WNW 12.7 mph 21.9 mph N/A   Unknown
6:15 PM 68.9 °F 38.1 °F 32% 29.81 in 10.0 mi WNW 17.3 mph 24.2 mph N/A   Unknown
6:35 PM 66.9 °F 33.8 °F 29% 29.82 in 10.0 mi NW 13.8 mph 21.9 mph N/A   Unknown
6:55 PM 64.8 °F 31.5 °F 29% 29.84 in 10.0 mi NW 16.1 mph 21.9 mph N/A   Unknown
7:15 PM 61.9 °F 31.6 °F 32% 29.85 in 10.0 mi NW 16.1 mph 21.9 mph N/A   Unknown
7:35 PM 61.7 °F 27.5 °F 27% 29.86 in 10.0 mi WNW 17.3 mph 26.5 mph N/A   Unknown
7:55 PM 60.3 °F 29.5 °F 31% 29.87 in 10.0 mi WNW 15.0 mph 25.3 mph N/A   Unknown
8:15 PM 59.0 °F 30.4 °F 34% 29.89 in 10.0 mi WNW 13.8 mph 20.7 mph N/A   Unknown
8:35 PM 57.9 °F 31.8 °F 37% 29.91 in 10.0 mi WNW 9.2 mph - N/A   Unknown
8:55 PM 57.0 °F 32.9 °F 40% 29.92 in 10.0 mi WNW 10.4 mph - N/A   Unknown
9:15 PM 55.9 °F 34.0 °F 44% 29.93 in 10.0 mi WNW 10.4 mph - N/A   Unknown
9:35 PM 55.4 °F 35.6 °F 47% 29.95 in 10.0 mi West 8.1 mph - N/A   Unknown
9:55 PM 54.3 °F 36.5 °F 51% 29.96 in 10.0 mi West 8.1 mph - N/A   Unknown
10:15 PM 53.6 °F 36.5 °F 52% 29.97 in 10.0 mi WNW 8.1 mph - N/A   Unknown
10:35 PM 52.2 °F 36.9 °F 56% 29.97 in 10.0 mi WNW 8.1 mph - N/A   Unknown
10:55 PM 50.0 °F 37.6 °F 62% 29.98 in 10.0 mi WNW 6.9 mph - N/A   Unknown
11:15 PM 53.1 °F 36.5 °F 53% 29.99 in 10.0 mi NW 11.5 mph 16.1 mph N/A   Unknown
11:35 PM 53.6 °F 35.2 °F 50% 29.99 in 10.0 mi NW 11.5 mph - N/A   Unknown
11:55 PM 53.1 °F 34.9 °F 50% 30.00 in 10.0 mi NW 13.8 mph 20.7 mph N/A   Unknown